Hobbs, NM

2:05 PM MDT on July 24, 2017 (GMT -0600)
Lea County Regional

Weather History for KHOB - December, 2012

Change the Weather History Date:

Monday, December 17, 2012

  Actual Average Record
Temperature  
Mean Temperature 47 °F -  
Max Temperature 62 °F 54 °F 73 °F (2002)
Min Temperature 32 °F 26 °F 12 °F (1996)
Degree Days  
Heating Degree Days 18    
Moisture  
Dew Point 22 °F    
Average Humidity 47    
Maximum Humidity 69    
Minimum Humidity 19    
Precipitation  
Precipitation 0.00 in - - ()
Sea Level Pressure  
Sea Level Pressure 29.95 in    
Wind  
Wind Speed 12 mph (WSW)    
Max Wind Speed 18 mph    
Max Gust Speed 25 mph    
Visibility 10 miles    
Events      
Averages and records for this station are not official NWS values.
T = Trace of Precipitation, MM = Missing Value Source: NWS Daily Summary

Daily Weather History Graph

Daily Weather History Graph

Search for Another Location

Airport or City:

Trip Planner

Search our weather history database for the weather conditions in past years. The results will help you decide how hot, cold, wet, or windy it might be!

Date:

Astronomy

Dec. 17, 2012 Rise Set
Actual Time 6:49 AM MST 4:49 PM MST
Civil Twilight 6:21 AM MST 5:16 PM MST
Nautical Twilight 5:51 AM MST 5:47 PM MST
Astronomical Twilight 5:21 AM MST 6:17 PM MST
Moon 10:12 AM MST (12/17) 9:58 PM MST (12/17)
Length of Visible Light 10h 54m
Length of Day
10h 00m
Waxing Crescent, 25% of the Moon is Illuminated
Dec 17
Waxing Crescent
Dec 19
First Quarter
Dec 28
Full
Jan 4
Last Quarter
Jan 11
New

Hourly Weather History & Observations

Time (MST) Temp. Windchill Dew Point Humidity Pressure Visibility Wind Dir Wind Speed Gust Speed Precip Events Conditions
12:15 AM 37.4 °F 28.2 °F 23.0 °F 56% 29.98 in 10.0 mi West 16.1 mph - N/A   Clear
12:35 AM 39.2 °F 31.2 °F 23.0 °F 52% 29.98 in 10.0 mi West 13.8 mph - N/A   Clear
12:55 AM 39.2 °F 29.8 °F 23.0 °F 52% 29.98 in 10.0 mi West 18.4 mph 24.2 mph N/A   Clear
1:15 AM 39.2 °F 30.2 °F 23.0 °F 52% 29.98 in 10.0 mi West 17.3 mph - N/A   Clear
1:35 AM 39.2 °F 30.5 °F 23.0 °F 52% 29.98 in 10.0 mi West 16.1 mph - N/A   Clear
1:55 AM 37.4 °F 28.9 °F 23.0 °F 56% 29.98 in 10.0 mi West 13.8 mph - N/A   Clear
2:15 AM 37.4 °F 28.2 °F 23.0 °F 56% 29.97 in 10.0 mi West 16.1 mph - N/A   Clear
2:35 AM 39.2 °F 30.2 °F 23.0 °F 52% 29.97 in 10.0 mi West 17.3 mph - N/A   Clear
2:55 AM 39.2 °F 30.5 °F 21.2 °F 49% 29.97 in 10.0 mi West 16.1 mph - N/A   Clear
3:15 AM 37.4 °F 28.5 °F 21.2 °F 52% 29.97 in 10.0 mi West 15.0 mph - N/A   Clear
3:35 AM 37.4 °F 29.3 °F 21.2 °F 52% 29.98 in 10.0 mi West 12.7 mph - N/A   Clear
3:55 AM 35.6 °F 27.5 °F 21.2 °F 56% 29.97 in 10.0 mi WNW 11.5 mph - N/A   Clear
5:50 AM 35.6 °F 28.6 °F 23.0 °F 60% 29.98 in 10.0 mi WSW 9.2 mph - N/A   Clear
6:50 AM 32.0 °F 24.8 °F 23.0 °F 69% 29.99 in 10.0 mi WSW 8.1 mph - N/A   Clear
7:50 AM 37.4 °F 30.8 °F 24.8 °F 60% 29.99 in 10.0 mi West 9.2 mph - N/A   Clear
8:50 AM 46.4 °F 39.5 °F 24.8 °F 43% 29.99 in 10.0 mi WSW 17.3 mph - N/A   Clear
9:50 AM 50.0 °F - 23.0 °F 35% 30.01 in 10.0 mi SW 16.1 mph - N/A   Clear
10:50 AM 53.6 °F - 23.0 °F 30% 30.00 in 10.0 mi WSW 16.1 mph - N/A   Clear
11:50 AM 57.2 °F - 21.2 °F 25% 29.96 in 10.0 mi SW 17.3 mph - N/A   Clear
12:50 PM 59.0 °F - 21.2 °F 23% 29.93 in 10.0 mi SW 16.1 mph 25.3 mph N/A   Clear
1:45 PM 59.0 °F - 21.2 °F 23% 29.92 in 10.0 mi SW 13.8 mph 19.6 mph N/A   Clear
2:45 PM 62.6 °F - 19.4 °F 19% 29.90 in 10.0 mi WSW 17.3 mph - N/A   Clear
5:35 PM 50.0 °F - 19.4 °F 30% 29.91 in 10.0 mi Calm Calm - N/A   Clear
5:50 PM 48.2 °F - 19.4 °F 32% 29.91 in 10.0 mi Calm Calm - N/A   Clear
5:55 PM 48.2 °F - 19.4 °F 32% 29.91 in 10.0 mi Calm Calm - N/A   Clear
6:15 PM 46.4 °F 44.3 °F 19.4 °F 34% 29.92 in 10.0 mi SW 4.6 mph - N/A   Clear
6:35 PM 44.6 °F 39.7 °F 19.4 °F 37% 29.93 in 10.0 mi SW 9.2 mph - N/A   Clear
6:55 PM 44.6 °F 41.4 °F 21.2 °F 39% 29.93 in 10.0 mi SW 5.8 mph - N/A   Clear
7:15 PM 44.6 °F 40.2 °F 23.0 °F 43% 29.93 in 10.0 mi SW 8.1 mph - N/A   Clear
7:35 PM 44.6 °F - 23.0 °F 43% 29.93 in 10.0 mi Calm Calm - N/A   Clear
7:55 PM 42.8 °F - 23.0 °F 46% 29.93 in 10.0 mi Calm Calm - N/A   Clear
8:15 PM 41.0 °F - 23.0 °F 49% 29.93 in 10.0 mi Calm Calm - N/A   Clear
8:35 PM 39.2 °F 35.0 °F 23.0 °F 52% 29.93 in 10.0 mi SSW 5.8 mph - N/A   Clear
8:55 PM 39.2 °F 33.6 °F 23.0 °F 52% 29.93 in 10.0 mi SW 8.1 mph - N/A   Clear
9:15 PM 39.2 °F - 23.0 °F 52% 29.92 in 10.0 mi Calm Calm - N/A   Clear
9:35 PM 37.4 °F - 23.0 °F 56% 29.92 in 10.0 mi Calm Calm - N/A   Clear
9:55 PM 37.4 °F - 23.0 °F 56% 29.93 in 10.0 mi Calm Calm - N/A   Clear
10:15 PM 37.4 °F - 23.0 °F 56% 29.92 in 10.0 mi Calm Calm - N/A   Clear
10:35 PM 39.2 °F 33.0 °F 24.8 °F 56% 29.93 in 10.0 mi SW 9.2 mph - N/A   Clear
10:55 PM 39.2 °F 35.0 °F 24.8 °F 56% 29.91 in 10.0 mi SW 5.8 mph - N/A   Clear
11:15 PM 37.4 °F 30.3 °F 24.8 °F 60% 29.91 in 10.0 mi SW 10.4 mph - N/A   Clear
11:35 PM 41.0 °F 33.5 °F 24.8 °F 53% 29.90 in 10.0 mi SW 13.8 mph - N/A   Clear
11:55 PM 41.0 °F 33.5 °F 26.6 °F 57% 29.89 in 10.0 mi SW 13.8 mph - N/A   Clear